Location: ????????
(38.4362°N, 22.8767°E)
Time: 04:25:40
(UTC+00:00)

Cosmos 1603 - Pass Details

Date: 23 April 2024
Orbit: 829 x 860 km, 71.0° (Epoch: 20 May)

Event Time Altitude Azimuth Distance (km) Brightness Sun altitude
Exits shadow 01:52:26 21° 182° (S) 1,781 5.0 -19.9°
Maximum altitude 01:56:06 61° 108° (ESE) 945 4.1 -19.3°
Drops below altitude 10° 02:01:39 10° 30° (NNE) 2,458 7.1 -18.4°
Sets 02:04:08 0° 27° (NNE) 3,401 7.9 -18.0°
